Location: Recife
(8.0585°S, 34.8848°W)
Time: 10:57:37
(UTC-03:00)

S-56A Canister/Altair - Pass Details

Date: 20 April 2026
Orbit: 633 x 2484 km, 38.9° (Epoch: 20 May)

Event Time Altitude Azimuth Distance (km) Brightness Sun altitude
Rises 12:15:16 0° 309° (NW) 6,030 12.4 65.7°
Reaches altitude 10° 12:19:28 10° 308° (NW) 4,886 12.2 65.1°
Maximum altitude 12:32:55 81° 222° (SW) 1,830 10.7 62.9°
Drops below altitude 10° 12:42:00 10° 134° (SE) 3,423 10.7 61.3°
Sets 12:44:27 0° 133° (SE) 4,182 11.0 60.9°
